SUCHAI (42788 NORAD) Tracking and Keplerian Element Data

This shows tracking and keplerian element data for the satellite.

Feedback or suggestion? Click here.




ElementValue
Catalog42788
NameSUCHAI
Epoch Orbit8207
Epoch Day348.85153821
Epoch Year2018
RAAN45.6613
Inclination97.3792
Eccentricity0.0012495
Argument of Perigee155.7599
Mean Anonmoly204.4228
Mean Motion15.22411628
Decay Rate1.105E-05
L11 42788U 17036Z 18348.85153821 .00001105 00000-0 50737-4 0 9996
L22 42788 97.3792 45.6613 0012495 155.7599 204.4228 15.22411628 82076

Live tracking and technical data element details for SUCHAI (NORAD 42788). SUCHAI can be tracked NOW for your location showing map with azimuth and elevation plus other details from your city location.

Track the satellite on the map from your city or location and see movement details for azimuth, elevation, latitude, longitude, range, height, and movement on the map or in text.







IsCatalogInMostPopularTable: catalog: 42788, numindb: 144
Update: records affected: 1



GetName: 42788 SUCHAI

Hit Count: updated at: Sat, 15 Dec 2018 13:18:34 GMT